Wind_Speed
45 47 47 48 48 48 49 50 50 51 51 51 51 52 53 53 53 54 54 54 54 54 54 54 55 55 55 55 55 55 55 55 54 52 52 52 52 52 53 53 52 52 51
44 44 45 46 47 48 49 50 50 51 51 51 51 51 52 53 54 54 54 55 55 55 55 55 55 55 55 55 55 55 55 55 54 53 52 52 53 53 53 53 53 53 52
42 43 44 44 46 47 48 49 50 50 51 51 51 51 52 52 54 55 55 55 55 55 55 55 55 55 55 55 55 55 54 54 54 54 53 53 52 53 52 52 53 53 52
42 43 43 44 45 46 47 48 49 50 51 50 51 52 52 53 53 53 53 53 54 54 54 54 54 54 54 54 54 54 54 53 53 53 52 52 52 52 52 52 52 53 53
40 42 43 43 44 45 46 47 48 49 50 50 50 52 52 53 53 53 52 53 53 53 53 53 53 53 52 53 52 52 52 52 52 51 51 50 51 51 51 52 52 52 52
39 40 41 42 43 44 45 46 47 48 49 49 50 50 51 51 52 53 53 53 52 52 51 51 51 51 50 50 51 51 52 51 51 51 50 49 49 50 50 51 52 52 51
38 40 41 42 42 43 43 44 45 46 46 47 48 48 48 49 49 50 51 50 50 50 51 51 50 50 50 50 51 51 51 50 51 51 51 50 49 50 51 50 51 52 51
38 39 40 41 42 43 43 44 44 44 45 45 45 46 47 47 47 47 48 49 49 49 49 49 50 49 49 50 50 50 50 50 50 50 51 50 50 50 50 49 49 49 50
37 38 39 40 40 41 42 42 42 43 43 43 43 44 45 46 46 46 46 47 47 47 47 47 48 48 49 50 50 49 48 48 49 49 49 49 49 48 48 48 48 48 48
35 36 37 38 39 39 39 40 41 41 41 41 42 42 42 42 43 43 44 45 46 46 47 47 46 47 47 47 48 47 46 45 45 45 46 46 46 45 45 45 45 46 45
34 34 35 36 36 37 37 38 39 39 39 40 40 40 39 39 40 40 41 42 43 43 44 45 45 45 45 45 45 44 44 44 43 43 44 44 44 44 44 44 44 43 43
33 33 33 34 34 35 35 36 36 37 37 37 37 37 37 37 38 38 39 39 39 40 41 42 42 42 43 43 43 43 43 43 43 43 43 43 42 42 42 42 42 41 41
32 32 32 32 32 33 34 34 34 34 34 34 35 35 35 36 36 36 36 36 36 37 38 39 40 40 40 41 41 41 41 42 41 40 40 39 39 39 39 39 39 38 38
30 30 31 31 32 32 33 33 33 33 33 33 33 34 34 34 34 34 34 34 35 35 35 35 35 36 37 37 38 38 38 38 37 37 36 36 36 36 36 36 35 36 36
30 29 30 30 31 31 31 31 31 31 32 32 32 32 33 33 33 33 33 33 34 34 34 34 34 33 33 34 34 34 34 34 34 34 33 33 32 32 33 33 33 34 34
29 30 30 30 30 30 30 30 30 31 30 30 30 31 31 31 31 32 32 32 32 33 33 33 33 33 32 32 31 31 31 31 31 31 30 30 30 31 31 31 31 32 33
30 30 30 30 30 30 30 29 29 29 29 29 29 29 29 29 29 30 31 31 31 31 32 32 32 32 31 31 30 30 30 30 29 29 29 29 29 29 30 31 31 31 31
30 30 30 30 30 30 29 29 29 29 29 29 28 28 28 29 29 30 30 30 31 31 31 31 31 31 31 30 30 29 29 29 28 28 28 28 28 28 29 29 29 29 28
29 29 29 29 29 29 29 29 29 29 28 28 27 27 28 28 28 29 29 29 29 29 30 30 30 29 29 28 28 28 28 28 27 27 26 26 27 27 27 27 27 27 27
26 26 26 27 27 27 27 27 27 28 28 27 26 26 26 27 27 27 27 27 27 27 27 27 27 27 26 26 26 26 26 26 25 25 25 25 25 25 24 25 25 25 25
25 25 25 25 25 25 25 26 26 26 26 26 25 26 25 25 25 25 25 25 24 24 24 24 24 24 24 23 23 23 23 24 24 24 24 23 23 23 23 23 23 22 22
24 24 24 23 23 24 24 24 25 25 25 24 24 24 24 24 24 24 23 23 22 22 22 22 22 22 21 21 22 22 22 22 22 23 23 22 22 22 22 21 21 20 20
24 24 23 23 23 23 23 23 24 23 23 23 23 23 22 22 22 22 21 21 20 20 20 20 21 21 20 20 21 21 21 21 21 21 21 22 21 21 20 19 18 18 18
24 23 23 23 23 23 23 23 22 22 22 21 21 20 20 20 20 20 20 19 19 19 19 19 20 20 20 20 20 20 20 20 20 20 20 20 20 19 18 17 17 17 17
22 22 22 23 22 22 22 21 21 21 21 20 19 19 19 19 19 19 18 18 18 19 19 19 19 20 20 19 19 19 19 19 20 20 19 18 18 18 17 17 17 17 16
21 21 21 21 21 20 20 20 20 20 20 19 18 18 18 17 17 17 17 17 17 17 17 17 17 17 18 18 18 18 18 18 18 18 17 17 17 18 17 17 16 16 16
Wind_Direction
261 262 261 261 260 260 261 263 263 262 263 264 265 265 265 265 265 265 265 266 266 266 267 268 268 269 270 270 271 272 272 272 272 271 271 270 268 268 268 268 268 268 269
263 263 263 263 262 263 264 265 265 265 264 265 265 265 265 265 266 265 265 265 266 266 267 268 268 269 269 270 271 272 272 272 272 271 271 271 270 268 268 268 268 268 268
263 264 265 266 266 266 267 267 267 266 265 266 266 265 265 265 266 266 266 266 266 266 267 268 268 268 269 270 271 271 272 271 271 271 270 270 269 268 268 268 268 267 267
264 264 266 267 268 268 268 268 267 267 267 267 267 266 265 266 266 266 266 266 266 266 267 268 268 268 269 269 270 270 271 271 271 270 270 269 268 268 268 267 266 266 267
265 266 267 268 269 269 269 268 268 268 268 268 268 267 267 266 266 266 266 266 266 266 267 267 268 268 268 269 270 270 271 270 270 270 269 268 268 268 268 267 266 266 266
267 267 268 269 270 270 270 270 269 269 269 269 269 268 268 267 266 266 266 266 265 265 265 266 267 266 267 269 270 270 270 270 270 269 269 268 268 268 268 268 267 267 266
269 269 270 271 271 272 271 271 270 270 270 270 270 270 269 268 267 266 266 266 265 264 264 265 265 266 267 269 270 270 270 270 271 270 269 270 269 269 269 268 268 268 267
271 272 273 273 273 273 272 272 271 271 271 272 271 271 270 270 269 267 266 266 265 265 264 264 265 267 268 269 270 270 270 271 271 271 270 270 271 271 269 268 267 267 267
272 274 274 274 274 274 273 273 273 274 274 273 273 272 271 270 269 269 269 267 266 266 265 265 266 267 269 270 271 271 271 271 272 272 272 271 271 270 268 267 267 268 268
274 275 276 276 276 275 275 275 275 275 275 275 274 273 272 270 270 269 269 268 266 266 266 266 267 268 270 270 271 271 271 270 271 273 273 272 271 269 268 268 268 269 269
277 277 277 276 276 277 277 278 278 277 277 276 274 273 272 271 270 270 269 269 267 266 267 268 268 269 269 270 272 272 271 271 271 273 273 273 272 270 269 268 268 269 269
278 278 278 278 278 279 279 280 280 280 279 277 275 274 273 272 272 272 271 270 269 269 268 269 269 268 269 270 271 272 272 273 273 275 275 274 272 271 270 269 268 268 268
278 278 278 280 280 281 281 281 281 281 281 279 277 275 274 274 273 272 272 272 271 270 269 269 269 269 270 270 271 272 272 273 274 274 274 274 272 271 270 268 267 267 268
279 279 280 281 281 282 283 282 282 282 281 280 280 278 276 274 274 273 273 273 273 273 271 269 269 270 271 273 273 272 272 273 273 273 273 272 271 270 269 268 267 266 268
279 281 282 283 283 282 282 282 282 282 283 282 281 279 277 276 275 274 274 274 274 273 273 271 271 272 273 273 273 272 271 271 272 273 273 272 270 269 270 269 269 269 270
279 281 283 283 284 283 283 283 283 284 284 284 282 281 279 277 276 276 276 276 276 275 273 272 272 272 273 274 274 272 271 271 271 271 271 271 270 270 270 270 270 270 271
280 282 282 284 285 284 283 283 284 285 285 285 284 281 279 278 278 278 277 277 276 274 273 272 272 272 272 274 273 272 270 270 271 270 270 270 270 270 270 270 270 269 269
280 281 283 284 285 284 283 284 285 285 285 285 283 281 280 280 279 278 277 277 277 275 274 273 273 273 273 272 272 271 269 268 268 268 268 268 268 269 270 270 269 268 268
281 282 283 285 286 286 284 284 285 285 285 284 283 282 280 280 280 279 278 277 276 275 275 274 274 274 273 272 271 269 267 266 267 266 267 268 268 268 269 269 269 269 268
283 283 284 286 287 287 287 287 286 286 286 285 283 282 281 280 280 280 279 278 276 275 275 274 273 273 273 270 268 266 265 265 265 265 266 268 268 269 270 271 271 271 269
284 284 285 287 288 289 290 289 289 289 288 286 284 283 281 281 281 282 280 279 277 276 276 274 273 272 269 267 265 265 265 264 264 265 267 267 266 268 270 271 272 270 269
284 284 286 287 288 290 291 292 293 293 291 288 287 285 283 281 282 282 281 279 277 276 276 275 272 269 266 264 265 265 264 264 266 267 266 265 265 268 271 272 270 268 267
284 285 286 287 289 290 291 293 295 295 293 290 289 288 285 282 282 282 281 278 275 274 275 275 272 268 266 264 264 264 264 264 266 267 267 266 266 267 269 269 266 265 264
285 285 285 286 288 290 291 293 295 296 295 294 292 290 288 286 284 283 280 279 277 277 276 275 272 269 266 265 264 263 262 263 265 267 266 265 263 263 265 265 264 262 262
286 286 285 285 287 289 291 293 294 294 295 296 294 292 290 289 287 285 282 280 279 278 277 276 273 269 265 263 262 261 261 262 265 266 264 262 260 259 261 261 259 260 264
288 286 285 286 286 288 290 291 293 294 294 294 295 294 294 291 289 286 284 281 279 278 278 276 272 269 266 264 261 260 261 262 264 264 262 260 260 259 258 258 257 260 265
Height
5625 5627 5628 5629 5630 5631 5632 5634 5634 5635 5636 5638 5639 5639 5640 5640 5641 5642 5643 5644 5645 5646 5646 5647 5648 5648 5649 5649 5649 5649 5649 5649 5651 5653 5652 5651 5651 5652 5652 5653 5654 5655 5656
5614 5615 5616 5617 5618 5619 5620 5621 5621 5622 5623 5623 5624 5625 5625 5626 5627 5628 5629 5630 5631 5632 5632 5633 5633 5633 5634 5634 5634 5635 5635 5635 5636 5638 5638 5637 5637 5637 5638 5639 5640 5640 5641
5603 5604 5605 5605 5606 5607 5607 5608 5608 5609 5609 5610 5610 5611 5611 5611 5612 5613 5614 5615 5616 5617 5617 5618 5619 5619 5620 5620 5620 5620 5620 5620 5621 5622 5623 5623 5623 5623 5624 5625 5625 5626 5627
5592 5593 5594 5594 5594 5595 5595 5595 5595 5595 5596 5596 5596 5596 5597 5597 5597 5598 5599 5600 5601 5602 5602 5603 5604 5604 5605 5605 5606 5606 5606 5606 5606 5606 5608 5608 5608 5608 5609 5610 5611 5612 5613
5582 5582 5583 5583 5583 5583 5582 5582 5582 5582 5582 5582 5582 5582 5582 5582 5583 5583 5584 5585 5586 5587 5588 5588 5589 5590 5590 5591 5591 5591 5591 5591 5591 5592 5593 5594 5594 5594 5595 5595 5596 5598 5599
5571 5571 5571 5571 5571 5570 5570 5569 5569 5569 5569 5569 5569 5569 5568 5568 5568 5569 5569 5570 5571 5572 5574 5574 5575 5575 5576 5577 5577 5577 5577 5577 5577 5578 5579 5580 5580 5580 5580 5580 5582 5583 5586
5561 5561 5560 5560 5559 5558 5558 5557 5557 5556 5556 5556 5555 5555 5555 5555 5554 5554 5555 5556 5557 5558 5559 5560 5561 5562 5562 5563 5563 5563 5563 5563 5564 5564 5564 5565 5565 5566 5565 5566 5567 5568 5570
5550 5550 5549 5549 5548 5547 5546 5545 5545 5544 5544 5543 5542 5542 5542 5541 5541 5541 5541 5542 5543 5544 5545 5546 5547 5548 5549 5549 5550 5550 5550 5550 5550 5550 5551 5551 5551 5550 5550 5551 5552 5554 5556
5540 5539 5538 5538 5537 5536 5535 5534 5533 5532 5532 5531 5530 5529 5529 5529 5528 5528 5528 5529 5530 5531 5532 5533 5534 5535 5536 5536 5536 5536 5537 5536 5536 5536 5536 5536 5536 5536 5536 5537 5538 5540 5542
5530 5529 5528 5527 5526 5525 5524 5523 5522 5520 5519 5518 5517 5517 5516 5516 5516 5516 5516 5516 5517 5519 5519 5520 5521 5521 5522 5521 5521 5522 5523 5524 5523 5522 5522 5522 5522 5522 5522 5523 5524 5526 5527
5521 5519 5518 5517 5516 5515 5514 5512 5511 5509 5508 5507 5506 5505 5505 5504 5504 5504 5504 5504 5504 5505 5506 5507 5508 5508 5508 5508 5508 5509 5509 5510 5510 5510 5509 5509 5509 5509 5510 5510 5511 5512 5514
5512 5510 5509 5507 5506 5505 5504 5502 5500 5499 5498 5496 5495 5494 5493 5493 5493 5493 5492 5492 5493 5493 5494 5495 5495 5496 5496 5496 5496 5496 5496 5497 5497 5497 5497 5497 5497 5497 5497 5497 5498 5499 5501
5503 5501 5500 5499 5497 5496 5494 5493 5491 5489 5488 5486 5485 5484 5483 5482 5482 5482 5481 5481 5481 5482 5482 5483 5483 5483 5484 5484 5484 5484 5484 5484 5484 5485 5485 5485 5485 5485 5485 5485 5486 5487 5489
5494 5493 5492 5490 5489 5487 5485 5483 5481 5480 5478 5476 5475 5474 5473 5472 5471 5471 5471 5471 5471 5471 5471 5471 5472 5472 5472 5472 5472 5472 5472 5472 5472 5473 5473 5473 5473 5474 5474 5475 5476 5477 5478
5486 5484 5483 5482 5480 5478 5476 5474 5472 5470 5468 5467 5465 5464 5463 5462 5462 5461 5460 5461 5460 5461 5461 5461 5461 5462 5462 5462 5461 5461 5461 5461 5462 5462 5462 5462 5463 5463 5464 5465 5466 5466 5467
5477 5476 5475 5473 5471 5469 5467 5466 5463 5461 5459 5457 5456 5454 5453 5453 5452 5451 5451 5450 5450 5450 5450 5450 5451 5452 5452 5452 5452 5452 5452 5452 5452 5452 5453 5453 5453 5454 5455 5455 5456 5457 5457
5469 5467 5466 5464 5462 5460 5459 5457 5455 5453 5450 5448 5447 5445 5444 5443 5442 5441 5441 5440 5440 5439 5439 5440 5441 5441 5442 5442 5442 5443 5443 5443 5443 5444 5444 5445 5445 5445 5446 5446 5446 5447 5447
5459 5458 5457 5455 5453 5452 5450 5448 5446 5444 5442 5440 5438 5436 5435 5434 5433 5432 5431 5430 5430 5430 5430 5430 5431 5431 5432 5432 5433 5433 5433 5434 5434 5435 5435 5436 5436 5437 5437 5438 5438 5438 5438
5451 5450 5448 5447 5445 5443 5441 5439 5437 5435 5433 5431 5430 5428 5427 5425 5424 5423 5422 5421 5421 5420 5420 5420 5421 5421 5422 5422 5423 5423 5424 5425 5426 5426 5427 5428 5428 5429 5429 5429 5430 5430 5430
5443 5442 5440 5439 5437 5435 5433 5431 5429 5427 5425 5423 5421 5419 5418 5417 5415 5414 5413 5412 5411 5411 5411 5411 5411 5412 5412 5413 5414 5414 5415 5416 5417 5418 5419 5419 5420 5421 5421 5421 5421 5422 5422
5436 5434 5433 5431 5429 5427 5425 5423 5421 5419 5416 5414 5412 5410 5409 5408 5407 5405 5404 5403 5403 5403 5403 5403 5403 5403 5404 5405 5405 5406 5407 5408 5409 5410 5411 5412 5412 5413 5413 5414 5414 5415 5415
5428 5427 5426 5424 5422 5420 5418 5416 5413 5411 5408 5406 5404 5402 5401 5400 5399 5398 5397 5396 5395 5395 5395 5395 5395 5396 5396 5397 5398 5399 5400 5401 5402 5403 5404 5404 5405 5406 5407 5407 5407 5408 5409
5421 5420 5418 5417 5415 5413 5411 5409 5407 5404 5401 5399 5397 5395 5394 5393 5392 5391 5390 5389 5389 5388 5388 5388 5388 5389 5389 5390 5391 5392 5393 5394 5395 5396 5397 5398 5399 5399 5400 5401 5401 5402 5403
5414 5413 5411 5410 5408 5407 5405 5402 5400 5398 5395 5393 5391 5389 5388 5387 5386 5385 5384 5383 5383 5382 5382 5382 5382 5383 5383 5384 5384 5385 5386 5387 5388 5389 5390 5391 5392 5393 5394 5395 5396 5397 5398
5407 5405 5404 5403 5402 5400 5398 5396 5394 5392 5390 5388 5386 5384 5383 5382 5380 5379 5378 5378 5377 5377 5377 5376 5376 5376 5377 5377 5378 5379 5380 5381 5382 5383 5384 5385 5386 5387 5388 5389 5391 5392 5393
5400 5399 5398 5396 5395 5394 5392 5390 5389 5387 5385 5383 5381 5379 5378 5376 5375 5374 5373 5373 5372 5372 5371 5371 5371 5371 5371 5372 5372 5373 5374 5375 5376 5377 5378 5379 5380 5381 5383 5384 5385 5387 5388